TimeEDT,TemperatureF,Dew PointF,Humidity,Sea Level PressureIn,VisibilityMPH,Wind Direction,Wind SpeedMPH,Gust SpeedMPH,PrecipitationIn,Events,Conditions,WindDirDegrees,DateUTC
12:15 AM,66.4,55.4,68,30.12,10.0,South,9.2,-,N/A,,Clear,170,2013-04-09 04:15:00
12:35 AM,65.8,55.6,69,30.12,10.0,South,6.9,-,N/A,,Clear,180,2013-04-09 04:35:00
12:55 AM,64.9,55.8,72,30.12,10.0,South,5.8,-,N/A,,Clear,190,2013-04-09 04:55:00
1:15 AM,64.8,56.3,74,30.12,10.0,South,6.9,-,N/A,,Clear,190,2013-04-09 05:15:00
1:35 AM,64.4,55.9,74,30.12,10.0,South,5.8,-,N/A,,Clear,190,2013-04-09 05:35:00
1:55 AM,64.4,55.6,73,30.12,10.0,South,5.8,-,N/A,,Clear,180,2013-04-09 05:55:00
2:15 AM,64.4,55.4,73,30.12,10.0,South,4.6,-,N/A,,Clear,190,2013-04-09 06:15:00
2:35 AM,63.9,55.6,74,30.12,10.0,South,5.8,-,N/A,,Clear,190,2013-04-09 06:35:00
2:55 AM,63.5,55.4,75,30.12,10.0,South,4.6,-,N/A,,Clear,190,2013-04-09 06:55:00
3:15 AM,63.5,55.4,75,30.12,10.0,SSW,3.5,-,N/A,,Clear,200,2013-04-09 07:15:00
3:35 AM,62.8,55.6,77,30.12,10.0,SSW,4.6,-,N/A,,Clear,200,2013-04-09 07:35:00
3:55 AM,62.6,55.8,78,30.13,10.0,SSW,4.6,-,N/A,,Clear,200,2013-04-09 07:55:00
4:15 AM,61.7,55.6,80,30.13,10.0,Calm,Calm,-,N/A,,Clear,0,2013-04-09 08:15:00
4:35 AM,60.8,55.8,83,30.14,10.0,Calm,Calm,-,N/A,,Clear,0,2013-04-09 08:35:00
4:55 AM,60.1,55.8,86,30.14,10.0,Calm,Calm,-,N/A,,Clear,0,2013-04-09 08:55:00
5:15 AM,59.9,55.9,87,30.14,10.0,Calm,Calm,-,N/A,,Clear,0,2013-04-09 09:15:00
5:35 AM,55.9,53.1,90,30.14,10.0,Calm,Calm,-,N/A,,Clear,0,2013-04-09 09:35:00
5:55 AM,54.5,52.3,92,30.15,7.0,Calm,Calm,-,N/A,,Clear,0,2013-04-09 09:55:00
6:15 AM,54.1,52.7,95,30.16,7.0,Calm,Calm,-,N/A,,Clear,0,2013-04-09 10:15:00
6:35 AM,53.6,52.3,95,30.17,7.0,Calm,Calm,-,N/A,,Clear,0,2013-04-09 10:35:00
6:55 AM,53.6,52.5,96,30.18,4.0,Calm,Calm,-,N/A,,Clear,0,2013-04-09 10:55:00
7:15 AM,54.7,54.0,97,30.18,4.0,Calm,Calm,-,N/A,,Clear,0,2013-04-09 11:15:00
7:35 AM,52.2,51.3,97,30.19,5.0,Calm,Calm,-,N/A,,Clear,0,2013-04-09 11:35:00
7:55 AM,54.1,53.4,97,30.20,10.0,Calm,Calm,-,N/A,,Clear,0,2013-04-09 11:55:00
8:15 AM,57.9,57.0,97,30.20,7.0,Calm,Calm,-,N/A,,Clear,0,2013-04-09 12:15:00
8:35 AM,61.3,58.1,89,30.20,10.0,Calm,Calm,-,N/A,,Clear,0,2013-04-09 12:35:00
8:55 AM,63.1,57.9,83,30.21,10.0,SSW,3.5,-,N/A,,Clear,210,2013-04-09 12:55:00
9:15 AM,65.1,58.1,78,30.21,10.0,SSW,3.5,-,N/A,,Clear,210,2013-04-09 13:15:00
9:35 AM,67.1,58.1,73,30.21,10.0,SSW,5.8,-,N/A,,Clear,210,2013-04-09 13:35:00
9:55 AM,68.4,57.7,69,30.21,10.0,SSW,5.8,-,N/A,,Clear,210,2013-04-09 13:55:00
10:15 AM,70.5,58.3,65,30.21,10.0,WSW,6.9,-,N/A,,Clear,250,2013-04-09 14:15:00
10:35 AM,71.6,58.1,62,30.21,10.0,SW,4.6,-,N/A,,Clear,220,2013-04-09 14:35:00
10:55 AM,73.4,58.8,60,30.21,10.0,SSW,6.9,-,N/A,,Clear,200,2013-04-09 14:55:00
11:15 AM,74.5,57.6,55,30.21,10.0,SSW,5.8,-,N/A,,Clear,200,2013-04-09 15:15:00
11:35 AM,76.1,56.7,51,30.21,10.0,SSW,8.1,-,N/A,,Clear,210,2013-04-09 15:35:00
11:55 AM,77.4,57.4,50,30.20,10.0,WSW,5.8,-,N/A,,Clear,250,2013-04-09 15:55:00
12:15 PM,77.9,56.5,48,30.20,10.0,SSW,8.1,-,N/A,,Clear,210,2013-04-09 16:15:00
12:35 PM,79.2,56.8,46,30.18,10.0,WSW,3.5,-,N/A,,Clear,240,2013-04-09 16:35:00
12:55 PM,80.1,55.8,43,30.18,10.0,WSW,6.9,-,N/A,,Clear,250,2013-04-09 16:55:00
1:15 PM,80.6,53.1,38,30.17,10.0,SW,10.4,-,N/A,,Scattered Clouds,220,2013-04-09 17:15:00
1:35 PM,81.1,54.1,39,30.16,10.0,SW,6.9,-,N/A,,Scattered Clouds,220,2013-04-09 17:35:00
1:55 PM,80.8,53.6,39,30.15,10.0,West,5.8,-,N/A,,Scattered Clouds,260,2013-04-09 17:55:00
2:15 PM,81.3,54.1,39,30.15,10.0,SSW,5.8,-,N/A,,Mostly Cloudy,210,2013-04-09 18:15:00
2:35 PM,81.1,53.2,38,30.14,10.0,South,9.2,-,N/A,,Mostly Cloudy,190,2013-04-09 18:35:00
2:55 PM,81.7,54.3,39,30.13,10.0,South,6.9,-,N/A,,Mostly Cloudy,180,2013-04-09 18:55:00
3:15 PM,81.3,52.3,37,30.12,10.0,South,4.6,-,N/A,,Scattered Clouds,190,2013-04-09 19:15:00
3:35 PM,83.3,52.5,34,30.12,10.0,SSW,8.1,-,N/A,,Scattered Clouds,210,2013-04-09 19:35:00
3:55 PM,83.1,52.3,34,30.11,10.0,SSW,9.2,-,N/A,,Mostly Cloudy,210,2013-04-09 19:55:00
4:15 PM,82.4,53.4,37,30.10,10.0,South,3.5,17.3,N/A,,Mostly Cloudy,190,2013-04-09 20:15:00
4:35 PM,82.2,52.0,35,30.10,10.0,South,4.6,-,N/A,,Mostly Cloudy,180,2013-04-09 20:35:00
4:55 PM,82.6,52.0,35,30.10,10.0,SSW,6.9,-,N/A,,Scattered Clouds,200,2013-04-09 20:55:00
5:15 PM,83.5,52.7,34,30.10,10.0,SSW,3.5,-,N/A,,Scattered Clouds,200,2013-04-09 21:15:00
5:35 PM,81.5,52.5,37,30.10,10.0,SSW,4.6,16.1,N/A,,Scattered Clouds,200,2013-04-09 21:35:00
5:55 PM,82.6,50.9,33,30.10,10.0,SSW,8.1,-,N/A,,Scattered Clouds,210,2013-04-09 21:55:00
6:15 PM,81.0,52.3,37,30.10,10.0,SSW,4.6,-,N/A,,Clear,210,2013-04-09 22:15:00
6:35 PM,81.7,52.5,36,30.10,10.0,SSW,5.8,-,N/A,,Scattered Clouds,200,2013-04-09 22:35:00
6:55 PM,81.1,52.0,36,30.10,10.0,SSW,4.6,-,N/A,,Scattered Clouds,210,2013-04-09 22:55:00
7:15 PM,79.7,52.7,39,30.10,10.0,SSW,3.5,-,N/A,,Clear,210,2013-04-09 23:15:00
7:35 PM,77.7,53.2,43,30.10,10.0,Calm,Calm,-,N/A,,Clear,0,2013-04-09 23:35:00
7:55 PM,75.4,54.0,47,30.11,10.0,Calm,Calm,-,N/A,,Clear,0,2013-04-09 23:55:00
8:15 PM,74.5,54.5,50,30.11,10.0,South,3.5,-,N/A,,Clear,180,2013-04-10 00:15:00
8:35 PM,73.2,54.9,52,30.11,10.0,South,3.5,-,N/A,,Clear,180,2013-04-10 00:35:00
8:55 PM,72.5,54.9,54,30.12,10.0,South,3.5,-,N/A,,Clear,190,2013-04-10 00:55:00
9:15 PM,69.4,55.9,62,30.12,10.0,South,3.5,-,N/A,,Clear,180,2013-04-10 01:15:00
9:35 PM,71.1,55.8,58,30.13,10.0,South,4.6,-,N/A,,Clear,180,2013-04-10 01:35:00
9:55 PM,71.1,55.0,57,30.13,10.0,South,3.5,-,N/A,,Clear,170,2013-04-10 01:55:00
10:15 PM,70.7,55.2,58,30.13,10.0,South,3.5,-,N/A,,Clear,170,2013-04-10 02:15:00
10:55 PM,67.8,55.2,64,30.12,10.0,South,3.5,-,N/A,,Clear,180,2013-04-10 02:55:00
11:15 PM,70.3,54.7,58,30.11,10.0,South,4.6,-,N/A,,Clear,190,2013-04-10 03:15:00
11:35 PM,69.8,54.9,59,30.11,10.0,South,4.6,-,N/A,,Clear,190,2013-04-10 03:35:00
11:55 PM,69.8,55.4,60,30.10,10.0,South,4.6,-,N/A,,Clear,190,2013-04-10 03:55:00